Theta_e
319 316 312 312 316 316 316 317 317 317 317 318 317 317 316 314 311 311 311 309 307 307 307 306 306 306 306 309 311 308 306 306 305 305 305 305 305 305 304 304 303 303
320 317 313 312 315 316 315 317 317 315 316 317 317 317 316 314 311 311 310 309 307 307 307 306 306 306 306 306 307 307 306 305 305 305 305 305 305 305 304 304 304 303
320 319 316 314 316 317 315 316 317 316 315 317 317 317 316 314 311 310 310 309 308 308 307 307 307 306 307 306 306 306 306 305 305 305 305 305 305 305 304 304 304 304
320 320 318 316 316 317 316 316 317 317 316 316 317 318 317 316 313 311 310 310 309 308 307 308 307 307 306 306 307 307 306 306 306 304 305 305 305 305 305 304 304 304
320 320 319 319 317 318 318 317 317 317 317 315 317 318 318 319 316 313 312 311 310 309 308 308 308 308 307 306 308 308 307 307 306 305 307 306 305 305 305 305 305 305
321 321 320 320 319 318 319 319 318 318 318 317 317 318 319 320 318 315 314 313 311 310 309 309 308 308 308 307 308 308 307 308 307 306 309 308 305 305 305 305 306 306
321 321 320 320 319 319 319 320 319 317 317 317 318 318 318 319 319 318 317 316 315 314 313 312 310 309 308 307 308 308 307 309 308 307 309 309 307 306 305 305 305 306
321 320 319 318 318 318 319 320 318 317 317 318 318 318 318 319 319 319 319 318 317 317 316 315 314 312 310 308 309 309 309 310 309 307 308 310 309 306 306 307 305 305
322 320 319 320 319 319 320 319 318 318 318 317 317 318 318 318 319 318 318 318 318 318 318 318 317 315 314 311 310 310 310 310 309 308 308 309 309 307 307 309 307 305
322 322 321 321 320 319 320 319 318 319 318 317 317 318 317 318 318 318 318 318 318 318 318 318 318 317 316 315 313 311 311 311 309 308 308 309 308 307 308 308 308 307
324 324 322 320 318 319 319 318 318 318 318 318 318 317 318 318 318 318 318 318 318 318 318 318 318 318 317 316 315 313 312 312 311 309 309 309 309 308 308 308 308 307
325 324 323 321 319 318 318 318 318 319 318 318 318 317 317 317 317 317 318 318 318 318 318 318 318 318 318 317 316 315 313 313 312 311 310 310 309 309 309 308 308 307
324 324 323 321 319 318 318 318 318 319 319 318 317 316 316 316 316 316 317 316 317 317 318 319 318 318 318 318 317 315 315 314 313 312 311 311 310 310 309 308 308 307
319 318 316 314 313 314 313 314 315 316 317 316 317 317 317 317 316 316 316 316 316 317 318 318 319 318 318 318 317 316 315 315 314 313 312 311 310 310 309 308 308 307
310 310 310 309 310 311 311 312 312 312 313 313 315 316 316 316 316 317 318 317 316 317 317 318 318 319 319 318 318 317 316 315 314 314 313 312 311 310 309 308 307 306
309 309 309 309 311 313 312 312 312 313 313 313 314 315 314 314 315 317 318 317 316 317 318 318 318 318 319 319 318 317 316 315 315 314 314 312 311 311 310 308 307 306
309 309 309 310 311 312 312 313 314 315 315 315 315 316 315 315 316 316 316 316 317 318 319 319 319 319 319 318 318 318 316 316 315 314 313 312 311 310 309 307 306 305
308 308 308 309 310 310 310 311 312 313 314 314 315 315 315 315 315 315 315 317 319 319 320 320 320 319 317 317 318 318 317 315 314 313 313 311 310 308 307 306 305 305
307 308 309 309 309 309 307 306 307 310 313 313 315 315 314 314 314 313 312 313 317 320 320 320 320 319 318 317 318 317 316 315 314 313 312 311 309 307 306 305 305 305
308 309 309 309 308 307 305 305 306 309 311 312 314 313 313 313 313 313 310 308 312 318 319 319 320 319 318 318 318 317 316 315 314 313 312 310 308 306 306 306 306 306
308 309 308 307 306 306 306 306 307 308 309 311 313 313 313 313 313 314 312 309 310 315 318 318 319 318 318 318 317 317 316 314 313 313 311 308 307 306 306 306 305 304
309 308 308 307 306 306 306 307 308 308 309 310 312 313 313 313 312 313 314 312 311 311 313 316 318 317 317 317 316 316 315 313 313 312 310 308 307 305 305 305 304 303
308 308 308 308 307 306 307 307 306 306 307 309 311 312 313 313 313 312 313 313 314 311 310 314 316 316 316 316 315 315 314 312 312 311 309 306 305 304 304 304 303 303
307 308 308 308 307 307 307 306 305 305 306 308 309 311 312 312 313 313 312 313 313 312 311 313 315 315 315 315 314 314 313 311 311 310 307 304 304 304 303 303 302 302
306 307 307 307 307 308 307 306 304 304 306 307 309 310 312 312 312 312 312 312 312 311 311 313 313 313 314 314 314 314 313 310 308 307 305 303 303 303 302 302 302 301
306 306 307 307 308 308 308 307 305 303 303 306 308 309 311 311 311 311 312 312 311 310 311 312 312 312 312 312 312 312 312 309 305 304 304 303 302 302 301 301 301 301
Wind_Speed
22 18 15 15 14 13 14 14 14 13 13 10 8 7 7 5 3 4 4 4 4 4 4 4 5 5 6 8 7 4 5 5 5 5 4 3 3 2 2 2 2 1
22 19 16 17 16 14 14 14 14 13 14 12 10 10 9 6 4 5 4 3 4 5 4 4 4 4 5 6 6 4 4 4 4 4 3 3 3 3 3 3 3 3
21 19 18 18 18 16 15 15 14 13 13 13 12 12 11 8 6 6 5 3 3 4 5 4 4 4 4 4 4 4 4 3 3 4 4 3 3 4 4 4 5 5
20 19 17 17 18 16 15 16 16 14 13 13 13 13 13 11 8 6 5 5 4 3 3 4 4 4 4 3 4 4 3 3 2 3 3 3 3 3 4 4 5 5
18 18 17 16 16 15 14 15 16 14 13 13 13 13 13 13 10 7 6 5 5 5 3 3 4 5 5 4 6 5 4 4 2 2 2 1 1 1 2 3 3 3
17 18 19 18 16 15 14 15 15 14 12 12 14 13 14 14 11 9 8 7 7 7 6 6 6 6 6 6 7 7 5 6 4 3 4 3 1 1 1 0 1 2
17 17 18 19 18 17 16 16 16 13 11 12 13 13 14 15 12 10 11 8 8 9 9 9 8 8 9 8 9 8 7 8 7 5 6 6 4 3 3 2 1 1
15 17 17 17 18 19 17 17 17 14 12 14 14 13 14 15 13 11 12 11 10 11 11 11 11 11 11 10 11 10 9 10 9 6 6 9 8 5 5 5 2 2
13 14 15 15 16 18 18 17 17 16 16 16 15 15 15 15 15 13 13 14 13 13 13 14 14 13 13 13 12 12 12 12 12 9 6 10 10 6 5 8 7 3
14 13 15 16 16 18 19 20 19 18 18 15 14 15 15 16 18 15 14 16 16 14 14 15 16 16 17 17 15 14 15 15 14 12 10 11 10 7 6 10 10 6
15 14 16 18 18 18 20 22 21 21 19 16 14 17 17 16 17 14 14 18 19 18 18 18 19 19 19 20 18 16 16 17 15 14 12 12 12 9 9 12 12 10
15 13 13 17 20 21 21 22 22 22 22 21 19 18 19 19 19 17 18 21 20 20 22 22 21 21 21 21 20 18 19 19 17 15 15 14 13 12 13 14 13 11
14 12 9 9 13 16 18 19 19 19 21 23 23 21 23 26 27 25 25 26 24 23 26 26 23 23 23 23 22 21 21 21 19 18 17 16 16 16 15 15 13 12
12 11 9 7 6 7 8 8 8 9 12 15 17 20 23 27 30 27 25 25 26 27 28 27 25 25 25 25 25 24 23 22 22 21 19 19 19 18 16 15 15 13
7 6 6 4 3 2 4 6 7 8 10 12 14 17 20 22 23 23 22 23 25 27 30 29 28 28 28 29 29 27 25 25 26 24 22 21 21 20 18 17 16 14
3 3 3 3 3 2 1 3 5 6 8 13 16 17 18 19 20 22 24 24 24 27 30 31 30 30 30 30 31 30 29 29 29 27 24 23 23 22 20 18 16 13
5 4 4 3 4 3 2 1 2 4 5 9 13 14 16 17 18 20 23 24 24 25 29 32 32 31 32 32 31 31 31 30 27 25 23 22 21 20 19 17 15 13
6 5 4 2 2 3 2 3 3 4 5 7 9 12 15 17 18 19 20 21 23 24 28 32 33 31 31 32 33 32 31 30 27 24 24 22 20 19 17 15 12 10
3 4 4 2 2 2 3 4 3 3 5 7 8 10 12 14 16 18 18 18 20 23 26 29 31 30 28 29 32 33 33 33 31 29 27 23 21 18 16 16 15 12
3 4 3 3 3 4 5 5 3 4 6 7 9 10 10 10 13 15 15 15 16 21 25 25 26 27 28 28 30 33 35 35 34 32 27 22 20 20 20 20 18 15
4 4 3 3 4 4 4 4 3 4 5 6 8 9 9 9 11 13 14 13 13 18 23 22 20 22 27 30 31 33 35 35 33 31 26 21 22 23 23 21 18 14
4 3 2 2 3 4 3 3 4 5 5 6 8 9 10 9 10 11 13 13 13 16 20 20 19 20 25 30 31 31 32 32 32 31 27 25 25 23 20 18 16 15
5 4 3 3 4 4 3 4 5 7 6 6 8 10 10 10 10 11 12 13 14 17 19 19 20 20 24 29 31 30 30 30 31 30 27 24 21 17 14 15 15 14
5 5 5 6 6 5 5 6 7 7 7 6 8 10 11 11 11 11 13 15 17 19 19 19 19 19 21 25 28 29 30 29 29 28 24 19 15 12 12 13 13 12
7 8 8 8 8 7 7 8 7 7 7 7 9 10 12 13 12 13 16 19 20 20 18 18 17 17 18 21 23 26 28 27 26 25 21 17 14 12 11 11 11 9
9 10 10 9 9 8 9 9 9 9 9 8 9 11 12 13 13 14 19 22 20 18 16 16 16 16 18 21 23 25 26 25 23 22 20 17 15 13 11 9 9 12
Wind_Direction
183 182 166 166 177 179 179 179 176 175 179 189 195 202 215 224 204 166 161 160 139 128 127 121 122 125 126 130 137 136 123 113 102 95 89 81 75 68 67 68 68 25
185 185 174 167 173 184 185 183 188 182 179 193 202 208 220 227 213 194 186 178 156 148 146 136 133 137 140 149 157 152 135 129 117 107 100 89 82 74 67 64 60 43
184 184 181 173 172 187 190 184 194 194 184 193 204 213 224 232 226 214 210 203 178 160 156 157 153 156 159 156 161 161 146 146 139 128 118 105 97 91 86 80 73 63
182 181 183 180 176 189 196 186 190 198 193 193 204 217 226 233 234 227 228 229 221 204 176 174 172 178 189 173 172 180 166 166 160 140 141 131 120 108 100 94 80 69
182 179 179 181 180 192 201 193 192 201 204 200 204 217 225 231 237 236 240 244 246 253 242 223 211 204 209 191 189 204 194 196 206 160 169 168 131 130 108 104 89 75
182 181 181 181 181 189 197 197 194 196 205 207 204 212 222 229 238 244 249 254 259 269 269 258 252 239 234 215 205 216 213 217 223 179 193 234 238 205 226 111 64 55
189 188 186 185 186 188 191 199 201 198 207 215 209 212 226 233 235 240 249 253 254 264 269 265 262 254 248 238 227 228 220 218 225 196 196 226 244 249 263 275 329 314
203 200 195 194 196 197 200 209 209 199 204 216 214 214 227 238 237 232 242 253 252 252 258 261 262 258 253 246 240 239 229 222 235 234 199 211 237 262 264 265 272 224
213 211 205 202 202 203 209 216 210 198 203 214 220 219 225 240 247 241 245 255 256 248 247 252 254 253 254 252 245 241 238 236 245 254 225 217 239 257 243 254 278 283
213 214 208 204 204 205 210 215 211 205 204 209 221 227 228 235 240 244 253 255 256 251 244 246 248 246 250 254 251 243 241 243 248 253 242 233 246 251 217 231 258 274
204 208 205 205 205 203 205 209 211 212 207 204 213 225 233 234 228 236 251 249 253 258 251 247 248 245 244 247 247 243 241 243 248 250 244 238 243 238 216 221 240 253
192 199 204 208 209 210 214 219 222 225 221 219 222 227 239 244 240 248 257 250 251 257 254 250 247 242 243 244 242 240 242 245 243 240 239 238 238 232 227 233 243 248
181 186 188 199 209 216 224 227 228 231 232 233 240 245 247 248 249 255 260 257 254 251 251 253 246 238 240 243 241 239 243 246 240 234 236 238 237 237 241 248 254 255
158 163 159 158 182 210 228 229 221 230 239 241 248 255 254 251 252 254 255 257 256 251 250 251 246 241 239 240 244 243 241 241 238 238 240 238 237 239 241 247 253 260
144 151 161 160 171 209 237 237 234 244 251 247 248 255 257 255 257 258 257 258 257 253 251 247 245 246 242 239 242 241 236 236 240 245 246 238 234 237 239 244 252 261
132 131 130 115 117 125 216 256 267 275 267 258 258 262 265 266 266 261 259 259 257 252 250 247 245 244 243 242 241 238 236 236 241 248 246 236 234 237 240 245 252 260
143 130 103 108 124 117 101 122 270 279 271 264 264 263 262 265 266 263 264 267 262 253 249 250 250 244 240 240 240 238 238 237 238 240 234 228 230 234 239 249 259 264
155 134 109 130 149 144 164 192 222 249 261 262 263 259 252 250 251 254 261 268 267 259 252 253 255 249 243 241 239 239 239 234 229 227 222 220 224 230 237 248 254 255
158 132 124 153 189 241 269 274 257 247 253 248 248 252 251 249 248 247 249 256 261 261 257 253 252 248 243 240 236 234 233 229 226 228 227 225 226 229 231 229 231 243
150 154 167 199 247 283 297 301 273 240 249 246 244 247 247 252 255 252 253 255 254 255 256 254 251 243 236 234 232 230 229 229 230 232 231 230 230 231 230 230 241 257
166 177 206 249 287 300 309 311 291 269 266 261 259 257 250 250 257 260 266 268 259 253 254 255 252 243 236 235 234 233 231 230 231 232 232 234 235 235 239 244 253 260
185 196 221 259 291 302 310 313 298 287 281 271 268 268 261 255 256 260 269 275 272 264 258 254 250 243 237 232 229 230 231 228 229 232 235 235 234 239 249 256 260 264
203 213 224 234 255 274 282 280 283 291 294 282 274 276 274 267 257 255 261 265 265 264 262 255 250 246 239 232 229 232 234 230 228 232 233 233 235 244 251 253 263 277
228 229 229 238 249 259 266 271 286 297 296 287 278 274 271 266 261 259 257 253 254 259 263 261 259 255 246 238 237 239 238 233 231 231 228 224 227 234 239 254 280 291
251 246 245 250 253 254 260 271 286 293 285 278 275 271 268 265 262 257 252 251 255 262 266 265 263 259 251 244 242 242 239 235 230 227 224 219 219 225 239 267 293 286
262 259 260 260 256 254 258 263 275 284 284 275 267 265 266 263 257 249 248 253 259 264 265 264 262 261 255 249 245 242 239 234 226 223 223 218 215 220 227 238 256 258